Weather in Gurievka

Ukraine / Mykolaiv District     47°07′23″N   31°52′09″E
temp.,
°C
wind,
m/s
gust,
m/s
humid.,
%
clouds,
%
prec.,
mm/h
press.,
hPa
HPBL,
m
17 august, wed
wed1700:00+22s36795 0.0 1009157
03:00+22sse347697 0.1 100988
06:00+21s348440 1.3 100883
09:00+27s345538 1.4 1009831
12:00+31s544068 0.0 10081888
15:00+31s6536100 0.1 10072030
18:00+30s5439100 0.0 10071404
21:00+23nnw577481 0.1 1008254
18 august, thu
thu1800:00+21nw23785 0.1 100871
03:00+21nw34785 0.1 100898
06:00+20nnw22835 0.0 100827
09:00+25nnw216153 0.0 1008548
12:00+29nw114259 0.0 10081612
15:00+31w1236100 0.1 10072309
18:00+29nnw344390 0.2 1007511
21:00+27n495165 0.2 1008292
19 august, fri
fri1900:00+26n485548 0.1 1008251
03:00+23nne34665 0.1 100880
06:00+22nne33650 0.0 100848
09:00+27nne22460 0.0 1009486
12:00+32nne33340 0.0 10092186
15:00+34ne222894 0.0 10082953
18:00+33w122983 0.1 10081324
21:00+29e344199 0.4 1009155
20 august, sat
sat2000:00+26e45510 0.1 101094
03:00+24ne22600 0.1 101021
06:00+23ne346252 0.0 101166
09:00+27ne45500 0.0 1011505
12:00+32ene44370 0.0 10101628
15:00+34ne432844 0.0 10092995
18:00+31sw133666 0.0 10091143
21:00+29ne2440100 0.0 1009164
21 august, sun
sun2100:00+26e47545 0.0 1010178
03:00+24ese35660 0.0 1010116
06:00+23e33720 0.3 101045
09:00+28e34510 0.4 1010634
12:00+32e333611 0.0 10102198
15:00+31ese3337100 0.6 10091324
18:00+29sse354644 1.6 1008399
21:00+25n5969100 4.3 1010219